Find Mengtian

NORAD ID: 54216 Int'l Des: 2022-143 Owner: CMSEO Country: CN operational
LEOCIRCULAR

リアルタイム位置

3D地球を読み込み中...

Mengtianについて

説明を読み込み中...

次回通過

Passes for default location (London). Set your location on the main map for personalized predictions.

高度履歴

Loading altitude history...

軌道要素

1 54216U 22143A 26104.84996935 .00016086 00000-0 17964-3 0 9997
2 54216 41.4685 347.8435 0005562 209.4927 150.5599 15.62394233283828
Epoch: Apr 14, 2026 • Age: 7 hours

現在のステータス

高度 380.6 km
速度 7.69 km/s
衛星直下点 30.46°N, 124.94°W
打ち上げ日 Oct 31, 2022
運用期間 3.4 years
タイプ other

技術仕様

分類 Payload
質量 23000.00 kg
乾燥質量 21500.00 kg
総質量 23000.00 kg
長さ 17.90 m
直径 4.20 m
スパン 55.00 m
形状 Step Cyl + 2 Pan
製造者 CAST
バスタイプ Tianhe
フェーズステータス Docked
所有者/国 CMSEO/CN

Most Searched